Flag for United Kingdom Weather past 2 weeks in Lichfield, England, United Kingdom

Now
59 °F

Partly sunny.


Feels Like: 58 °F
Forecast: 58 / 80 °F
Wind: 7 mph from Northeast

Location: Birmingham / Airport

Current Time: Jul 23, 2014 at 7:36:19 AM

Latest Report: Jul 23, 2014 at 6:20 AM


Visibility: 4 mi

Pressure: 30.24 "Hg

Humidity: 94%

Dew point: 57 °F

Location of LichfieldLocation

Historic Weather in Lichfield — Graph

°F

Lichfield temperature yesterday

Maximum temperature yesterday: 77 °F (at 3:50 PM)
Minimum temperature yesterday: 59 °F (at 4:50 AM)
Average temperature yesterday: 68 °F

Past Weeks' High & Low Weather Summary

 TemperatureHumidityPressure
High81 °F (Jul 18, 3:20 PM)100% (Jul 17, 1:20 AM)30.30 "Hg (Jul 17, 1:20 AM)
Low54 °F (Jul 8, 6:20 AM)41% (Jul 10, 2:50 PM)29.74 "Hg (Jul 13, 4:20 AM)
Average66 °F72%30.00 "Hg
* Reported Jul 8 6:20 AM — Jul 23 6:20 AM, Lichfield, Weather by CustomWeather, © 2014

Note: Actual official high and low records may vary slightly from our data, if they occured in-between our weather recording intervals... More about our weather records

Advertising

Lichfield weather history for previous 24 hours

 ConditionsComfort  
Time TempWeatherWind HumidityBarometerVisibility
6:20 AM
Jul 23
59 °FPartly sunny.7 mph94%30.24 "Hg4 mi
5:50 AM59 °FPassing clouds.8 mph94%30.24 "Hg4 mi
5:20 AM59 °FPassing clouds.9 mph94%30.24 "Hg4 mi
4:50 AM59 °FPassing clouds.8 mph94%30.24 "Hg4 mi
4:20 AM59 °FPassing clouds.6 mph94%30.24 "Hg4 mi
3:50 AM59 °FPassing clouds.6 mph94%30.24 "Hg4 mi
3:20 AM59 °FPassing clouds.7 mph94%30.24 "Hg4 mi
2:50 AM59 °FLow clouds.7 mph94%30.24 "Hg4 mi
2:20 AM61 °FPassing clouds.7 mph94%30.24 "Hg4 mi
1:50 AM61 °FPassing clouds.6 mph94%30.24 "Hg5 mi
1:20 AM61 °FPassing clouds.7 mph94%30.24 "Hg6 mi
12:50 AM63 °FPassing clouds.6 mph88%30.24 "HgN/A
5:50 PM
Jul 22
77 °FPassing clouds.8 mph47%30.21 "HgN/A
5:20 PM77 °FScattered clouds.10 mph47%30.21 "HgN/A
4:50 PM77 °FPassing clouds.7 mph51%30.21 "HgN/A
4:20 PM77 °FPassing clouds.8 mph47%30.21 "HgN/A
3:50 PM77 °FPassing clouds.7 mph51%30.21 "HgN/A
3:20 PM75 °FPassing clouds.6 mph50%30.21 "HgN/A
2:50 PM75 °FPassing clouds.7 mph50%30.24 "HgN/A
2:20 PM75 °FScattered clouds.8 mph54%30.24 "HgN/A
1:50 PM75 °FScattered clouds.7 mph50%30.24 "HgN/A
1:20 PM73 °FPassing clouds.10 mph57%30.24 "HgN/A
12:50 PM73 °FScattered clouds.7 mph53%30.24 "HgN/A
12:20 PM72 °FPartly sunny.6 mph61%30.24 "HgN/A
11:50 AM73 °FScattered clouds.7 mph57%30.24 "HgN/A
11:20 AM72 °FScattered clouds.5 mph65%30.24 "HgN/A
10:50 AM70 °FPassing clouds.6 mph69%30.24 "HgN/A
10:20 AM70 °FPassing clouds.3 mph69%30.24 "HgN/A
9:50 AM68 °FPassing clouds.5 mph73%30.24 "HgN/A
9:20 AM68 °FSunny.3 mph73%30.24 "Hg10 mi
8:50 AM66 °FPassing clouds.5 mph73%30.24 "HgN/A
8:20 AM64 °FPassing clouds.6 mph78%30.24 "HgN/A
7:50 AM64 °FSunny.5 mph73%30.24 "Hg10 mi
7:20 AM63 °FSunny.5 mph77%30.24 "Hg10 mi
Weather by CustomWeather, © 2014

See weather overviewHow to use our weather pages